timestamp,surface_pressure_avg,surface_temp_avg,battery_voltage,lat,long
2023-12-07 00:09:00+00:00,236.6814,6.59,11.86,47.84626,-54.09684
2023-12-07 00:19:00+00:00,241.0264,6.59,11.86,47.84626,-54.09684
2023-12-07 00:29:00+00:00,234.1147,6.59,11.86,47.84626,-54.09684
2023-12-07 00:39:00+00:00,231.4664,6.6,11.86,47.84626,-54.09684
2023-12-07 00:49:00+00:00,243.8448,6.6,11.86,47.84626,-54.09684
2023-12-07 00:59:00+00:00,244.3214,6.6,11.86,47.84626,-54.09684
2023-12-07 01:09:00+00:00,236.3398,6.6,11.86,47.84626,-54.09684
2023-12-07 01:19:00+00:00,237.7464,6.63,11.86,47.84626,-54.09684
2023-12-07 01:29:00+00:00,243.7964,6.62,11.86,47.84626,-54.09684
2023-12-07 01:39:00+00:00,237.9898,6.6,11.86,47.84626,-54.09684
2023-12-07 01:49:00+00:00,236.7014,6.63,11.86,47.84626,-54.09684
2023-12-07 01:59:00+00:00,246.8165,6.6,11.86,47.84626,-54.09684
2023-12-07 02:09:00+00:00,251.2164,6.6,11.86,47.84626,-54.09684
2023-12-07 02:19:00+00:00,239.8581,6.6,11.77,47.84626,-54.09684
2023-12-07 02:29:00+00:00,237.2981,6.6,11.77,47.84626,-54.09684
2023-12-07 02:39:00+00:00,253.6814,6.6,11.77,47.84626,-54.09684
2023-12-07 02:49:00+00:00,260.4848,6.6,11.77,47.84626,-54.09684
2023-12-07 02:59:00+00:00,256.4114,6.37,11.77,47.84626,-54.09684
2023-12-07 03:09:00+00:00,257.3164,6.28,11.77,47.84626,-54.09684
2023-12-07 03:19:00+00:00,274.7581,6.3,11.77,47.84626,-54.09684
2023-12-07 03:29:00+00:00,277.4764,6.3,11.77,47.84626,-54.09684
2023-12-07 03:39:00+00:00,267.673,6.2,11.77,47.84626,-54.09684
2023-12-07 03:49:00+00:00,271.0747,6.27,11.77,47.84626,-54.09684
2023-12-07 03:59:00+00:00,288.0563,6.3,11.77,47.84626,-54.09684
2023-12-07 04:09:00+00:00,294.2781,6.3,11.77,47.84626,-54.09684
2023-12-07 04:19:00+00:00,290.7997,6.3,11.77,47.84626,-54.09684
2023-12-07 04:29:00+00:00,295.068,6.37,11.77,47.84626,-54.09684
2023-12-07 04:39:00+00:00,300.7664,6.4,11.77,47.84626,-54.09684
2023-12-07 04:49:00+00:00,305.0197,6.4,11.77,47.84626,-54.09684
2023-12-07 04:59:00+00:00,305.1147,6.5,11.77,47.84626,-54.09684
2023-12-07 05:09:00+00:00,310.6397,6.56,11.77,47.84626,-54.09684
2023-12-07 05:19:00+00:00,317.5113,6.6,11.77,47.84626,-54.09684
2023-12-07 05:29:00+00:00,319.698,6.62,11.77,47.84626,-54.09684
2023-12-07 05:39:00+00:00,322.903,6.69,11.77,47.84626,-54.09684
2023-12-07 05:49:00+00:00,326.4497,6.7,11.77,47.84626,-54.09684
2023-12-07 05:59:00+00:00,334.0696,6.7,11.77,47.84626,-54.09684
2023-12-07 06:09:00+00:00,334.4813,6.7,11.77,47.84626,-54.09684
2023-12-07 06:19:00+00:00,331.7396,6.7,11.77,47.84626,-54.09684
2023-12-07 06:29:00+00:00,332.838,6.7,11.77,47.84626,-54.09684
2023-12-07 06:39:00+00:00,339.1429,6.68,11.77,47.84626,-54.09684
2023-12-07 06:49:00+00:00,343.8179,6.68,11.77,47.84626,-54.09684
2023-12-07 06:59:00+00:00,342.0897,6.5,11.77,47.84626,-54.09684
2023-12-07 07:09:00+00:00,342.3496,6.3,11.77,47.84626,-54.09684
2023-12-07 07:19:00+00:00,343.6913,6.27,11.77,47.84626,-54.09684
2023-12-07 07:29:00+00:00,344.4463,6.17,11.77,47.84626,-54.09684
2023-12-07 07:39:00+00:00,350.7746,6.36,11.77,47.84626,-54.09684
2023-12-07 07:49:00+00:00,348.5346,6.3,11.77,47.84626,-54.09684
2023-12-07 07:59:00+00:00,337.7913,6.2,11.77,47.84626,-54.09684
2023-12-07 08:09:00+00:00,338.3313,6.3,11.77,47.84626,-54.09684
2023-12-07 08:19:01+00:00,338.8162,6.4,11.7,47.84626,-54.09684
2023-12-07 08:29:01+00:00,328.3963,6.16,11.7,47.84626,-54.09684
2023-12-07 08:39:01+00:00,318.943,6.1,11.7,47.84626,-54.09684
2023-12-07 08:49:01+00:00,330.8713,5.95,11.7,47.84626,-54.09684
2023-12-07 08:59:01+00:00,329.7029,5.36,11.7,47.84626,-54.09684
2023-12-07 09:09:01+00:00,314.0164,5.44,11.7,47.84626,-54.09684
2023-12-07 09:19:00+00:00,313.473,5.3,11.7,47.84626,-54.09684
2023-12-07 09:29:00+00:00,320.5048,5.3,11.7,47.84626,-54.09684
2023-12-07 09:39:00+00:00,308.6896,5.3,11.7,47.84626,-54.09684
2023-12-07 09:49:00+00:00,296.3597,5.97,11.7,47.84626,-54.09684
2023-12-07 09:59:00+00:00,302.323,6.0,11.7,47.84626,-54.09684
2023-12-07 10:09:00+00:00,304.1013,6.0,11.7,47.84626,-54.09684
2023-12-07 10:19:00+00:00,291.503,5.96,11.7,47.84626,-54.09684
2023-12-07 10:29:00+00:00,290.1447,6.0,11.7,47.84626,-54.09684
2023-12-07 10:39:00+00:00,297.253,6.0,11.7,47.84626,-54.09684
2023-12-07 10:49:00+00:00,293.96299999999997,5.8,11.7,47.84626,-54.09684
2023-12-07 10:59:00+00:00,281.0864,5.78,11.7,47.84626,-54.09684
2023-12-07 11:09:00+00:00,280.828,5.73,11.7,47.84626,-54.09684
2023-12-07 11:19:00+00:00,279.0864,5.7,11.7,47.84626,-54.09684
2023-12-07 11:29:00+00:00,273.4897,4.77,11.7,47.84626,-54.09684
2023-12-07 11:39:00+00:00,272.3364,3.8,11.7,47.84626,-54.09684
2023-12-07 11:49:00+00:00,267.5897,3.96,11.7,47.84626,-54.09684
2023-12-07 11:59:00+00:00,258.2031,4.67,11.7,47.84626,-54.09684
2023-12-07 12:09:00+00:00,259.4914,4.8,11.7,47.84626,-54.09684
2023-12-07 12:19:00+00:00,274.7648,4.58,11.7,47.84626,-54.09684
2023-12-07 12:29:00+00:00,270.403,4.3,11.7,47.84626,-54.09684
2023-12-07 12:39:00+00:00,257.8064,4.33,11.7,47.84626,-54.09684
2023-12-07 12:49:00+00:00,255.6398,4.6,11.7,47.84626,-54.09684
2023-12-07 12:59:00+00:00,258.2246,4.7,11.7,47.84626,-54.09684
2023-12-07 13:09:00+00:00,250.6364,4.7,11.7,47.84626,-54.09684
2023-12-07 13:19:00+00:00,250.4831,4.63,11.77,47.84626,-54.09684
2023-12-07 13:29:00+00:00,261.5998,4.85,11.77,47.84626,-54.09684
2023-12-07 13:39:00+00:00,267.0081,4.97,11.77,47.84626,-54.09684
2023-12-07 13:49:00+00:00,257.7764,4.68,11.77,47.84626,-54.09684
2023-12-07 13:59:00+00:00,254.9514,5.01,11.77,47.84626,-54.09684
2023-12-07 14:09:00+00:00,266.6214,5.89,11.77,47.84626,-54.09684
2023-12-07 14:19:00+00:00,270.2881,5.9,12.33,47.84626,-54.09684
2023-12-07 14:29:00+00:00,259.7698,5.3,12.33,47.84626,-54.09684
2023-12-07 14:39:00+00:00,257.1064,5.78,12.33,47.84626,-54.09684
2023-12-07 14:49:00+00:00,260.113,6.0,12.33,47.84626,-54.09684
2023-12-07 14:59:00+00:00,262.0747,6.0,12.33,47.84626,-54.09684
2023-12-07 15:09:00+00:00,261.9814,6.0,12.33,47.84626,-54.09684
2023-12-07 15:19:00+00:00,266.9148,6.0,12.41,47.84626,-54.09684
2023-12-07 15:29:00+00:00,269.0847,5.91,12.41,47.84626,-54.09684
2023-12-07 15:39:00+00:00,272.1998,4.74,12.41,47.84626,-54.09684
2023-12-07 15:49:00+00:00,275.9497,4.5,12.41,47.84626,-54.09684
2023-12-07 15:59:00+00:00,282.4197,5.99,12.41,47.84626,-54.09684
2023-12-07 16:09:00+00:00,281.3514,5.44,12.41,47.84626,-54.09684
2023-12-07 16:19:00+00:00,282.58799999999997,5.2,12.41,47.84626,-54.09684
2023-12-07 16:29:00+00:00,287.58799999999997,5.26,12.41,47.84626,-54.09684
2023-12-07 16:39:00+00:00,290.6214,5.1,12.41,47.84626,-54.09684
2023-12-07 16:49:00+00:00,290.173,4.95,12.41,47.84626,-54.09684
2023-12-07 16:59:00+00:00,297.7531,5.09,12.41,47.84626,-54.09684
2023-12-07 17:09:00+00:00,308.1514,5.25,12.41,47.84626,-54.09684
2023-12-07 17:19:00+00:00,310.5063,5.5,12.41,47.84626,-54.09684
2023-12-07 17:29:00+00:00,311.6964,5.34,12.41,47.84626,-54.09684
2023-12-07 17:39:00+00:00,321.0646,5.47,12.41,47.84626,-54.09684
2023-12-07 17:49:00+00:00,328.2847,5.66,12.41,47.84626,-54.09684
2023-12-07 17:59:00+00:00,323.6314,5.8,12.41,47.84626,-54.09684
2023-12-07 18:09:00+00:00,326.8679,5.89,12.41,47.84626,-54.09684
2023-12-07 18:19:00+00:00,333.3313,5.89,12.01,47.84626,-54.09684
2023-12-07 18:29:00+00:00,330.1213,5.89,12.01,47.84626,-54.09684
2023-12-07 18:39:00+00:00,328.6396,5.89,12.01,47.84626,-54.09684
2023-12-07 18:49:00+00:00,333.2496,5.89,12.01,47.84626,-54.09684
2023-12-07 18:59:00+00:00,338.7079,5.89,12.01,47.84626,-54.09684
2023-12-07 19:09:00+00:00,340.468,5.9,12.01,47.84626,-54.09684
2023-12-07 19:19:00+00:00,343.7446,5.89,12.01,47.84626,-54.09684
2023-12-07 19:29:00+00:00,343.0312,5.9,12.01,47.84626,-54.09684
2023-12-07 19:39:00+00:00,340.0314,5.9,12.01,47.84626,-54.09684
2023-12-07 19:49:00+00:00,341.6896,5.9,12.01,47.84626,-54.09684
2023-12-07 19:59:00+00:00,346.8597,6.0,12.01,47.84626,-54.09684
2023-12-07 20:09:00+00:00,345.31800000000015,5.99,12.01,47.84626,-54.09684
2023-12-07 20:19:00+00:00,343.0646,5.9,11.93,47.84626,-54.09684
2023-12-07 20:29:00+00:00,348.6763,5.94,11.93,47.84626,-54.09684
2023-12-07 20:39:00+00:00,349.2296,6.0,11.93,47.84626,-54.09684
2023-12-07 20:49:00+00:00,345.3796,5.8,11.93,47.84626,-54.09684
2023-12-07 20:59:00+00:00,340.5029,5.8,11.93,47.84626,-54.09684
2023-12-07 21:09:00+00:00,341.088,5.94,11.93,47.84626,-54.09684
2023-12-07 21:19:00+00:00,342.3697,6.0,11.93,47.84626,-54.09684
2023-12-07 21:29:00+00:00,333.1812,6.0,11.93,47.84626,-54.09684
2023-12-07 21:39:00+00:00,328.838,5.9,11.93,47.84626,-54.09684
2023-12-07 21:49:00+00:00,332.9263,6.07,11.93,47.84626,-54.09684
2023-12-07 21:59:00+00:00,331.1663,6.1,11.93,47.84626,-54.09684
2023-12-07 22:09:00+00:00,320.3863,6.1,11.93,47.84626,-54.09684
2023-12-07 22:19:00+00:00,313.3763,6.1,11.93,47.84626,-54.09684
2023-12-07 22:29:00+00:00,312.3214,6.13,11.93,47.84626,-54.09684
2023-12-07 22:39:00+00:00,306.8314,6.2,11.93,47.84626,-54.09684
2023-12-07 22:49:00+00:00,300.0814,6.1,11.93,47.84626,-54.09684
2023-12-07 22:59:00+00:00,294.428,5.94,11.93,47.84626,-54.09684
2023-12-07 23:09:00+00:00,284.5797,5.9,11.93,47.84626,-54.09684
2023-12-07 23:19:00+00:00,280.5665,6.24,11.93,47.84626,-54.09684
2023-12-07 23:29:00+00:00,275.9331,6.4,11.93,47.84626,-54.09684
2023-12-07 23:39:00+00:00,267.0098,6.1,11.93,47.84626,-54.09684
2023-12-07 23:49:00+00:00,255.928,6.15,11.93,47.84626,-54.09684
2023-12-07 23:59:00+00:00,255.748,6.2,11.93,47.84626,-54.09684
